Location: Observatory
(52.1446°N, 0.4624°W)
Time: 16:52:40
(UTC+01:00)

ISS - Pass Details

Date: 01 June 2020
Orbit: 417 x 420 km, 51.6° (Epoch: 26 May)

Event Time Altitude Azimuth Distance (km) Brightness Sun altitude
Rises 22:09:42 0° 276° (W) 2,366 0.8 -6.9°
Reaches altitude 10° 22:13:13 10° 238° (WSW) 1,497 -0.9 -7.2°
Maximum altitude 22:14:04 11° 223° (SW) 1,450 -1.1 -7.3°
Drops below altitude 10° 22:14:56 10° 208° (SSW) 1,495 -1.2 -7.4°
Enters shadow 22:16:55 - 181° (S) 1,887 -0.9 -7.6°
